Weather History for KOCW - November, 2011

Change the Weather History Date:

Wednesday, November 16, 2011

  Actual Average (KEWN) Record (KEWN)
Temperature  
Mean Temperature 74 °F 55 °F  
Max Temperature 82 °F 66 °F 84 °F (1955)
Min Temperature 66 °F 44 °F 23 °F (1967)
Degree Days  
Heating Degree Days 0 10  
Month to date heating degree days 136  
Since 1 July heating degree days 253  
Cooling Degree Days 9 0  
Month to date cooling degree days 14  
Year to date cooling degree days 1899  
Growing Degree Days 24 (Base 50)    
Moisture  
Dew Point 63 °F    
Average Humidity 74    
Maximum Humidity 83    
Minimum Humidity 51    
Precipitation  
Precipitation 0.00 in 0.11 in 0.75 in (2002)
Month to date precipitation 1.77  
Year to date precipitation 47.72  
Snow  
Snow 0.00 in - - ()
Month to date snowfall  
Since 1 July snowfall  
Snow Depth -    
Sea Level Pressure  
Sea Level Pressure 29.89 in    
Wind  
Wind Speed 7 mph (SSW)    
Max Wind Speed 17 mph    
Max Gust Speed 24 mph    
Visibility 10 miles    
Events      
T = Trace of Precipitation, MM = Missing Value Source: NWS Daily Summary

Daily Weather History Graph

Daily Weather History Graph

Search for Another Location

Airport or City:

Trip Planner

Search our weather history database for the weather conditions in past years. The results will help you decide how hot, cold, wet, or windy it might be!

Date:

Astronomy

Nov. 16, 2011 Rise Set
Actual Time 6:44 AM EST 5:00 PM EST
Civil Twilight 6:17 AM EST 5:28 PM EST
Nautical Twilight 5:46 AM EST 5:58 PM EST
Astronomical Twilight 5:16 AM EST 6:29 PM EST
Moon 10:10 PM EST (11/16) 11:20 AM EST (11/16)
Length of Visible Light 11h 10m
Length of Day
10h 16m
Waning Gibbous, 70% of the Moon is Illuminated
Nov 16
Waning Gibbous
Nov 18
Last Quarter
Nov 25
New
Dec 2
First Quarter
Dec 10
Full

Hourly Weather History & Observations

Time (EST) Temp. Heat Index Dew Point Humidity Pressure Visibility Wind Dir Wind Speed Gust Speed Precip Events Conditions
12:15 AM 68.0 °F - 60.8 °F 78% 29.97 in 10.0 mi Calm Calm - N/A   Mostly Cloudy
12:35 AM 68.0 °F - 60.8 °F 78% 29.96 in 10.0 mi SSE 4.6 mph - N/A   Scattered Clouds
12:55 AM 68.0 °F - 60.8 °F 78% 29.97 in 10.0 mi South 5.8 mph - N/A   Scattered Clouds
1:15 AM 68.0 °F - 60.8 °F 78% 29.97 in 10.0 mi South 4.6 mph - N/A   Scattered Clouds
1:35 AM 66.2 °F - 59.0 °F 78% 29.96 in 10.0 mi South 4.6 mph - N/A   Clear
1:55 AM 66.2 °F - 59.0 °F 78% 29.96 in 10.0 mi South 3.5 mph - N/A   Scattered Clouds
2:15 AM 66.2 °F - 59.0 °F 78% 29.95 in 7.0 mi South 3.5 mph - N/A   Mostly Cloudy
2:35 AM 68.0 °F - 60.8 °F 78% 29.95 in 7.0 mi SSW 4.6 mph - N/A   Overcast
2:55 AM 68.0 °F - 60.8 °F 78% 29.95 in 7.0 mi South 4.6 mph - N/A   Overcast
3:15 AM 68.0 °F - 60.8 °F 78% 29.95 in 10.0 mi SSW 5.8 mph - N/A   Overcast
3:35 AM 68.0 °F - 60.8 °F 78% 29.94 in 10.0 mi SSW 8.1 mph - N/A   Overcast
3:55 AM 68.0 °F - 60.8 °F 78% 29.94 in 10.0 mi SSW 5.8 mph - N/A   Overcast
4:15 AM 68.0 °F - 60.8 °F 78% 29.94 in 10.0 mi SW 9.2 mph - N/A   Overcast
4:35 AM 68.0 °F - 60.8 °F 78% 29.95 in 7.0 mi SSW 8.1 mph - N/A   Overcast
4:55 AM 68.0 °F - 60.8 °F 78% 29.95 in 7.0 mi SW 6.9 mph - N/A   Overcast
5:15 AM 68.0 °F - 60.8 °F 78% 29.95 in 7.0 mi SSW 6.9 mph - N/A   Overcast
5:35 AM 68.0 °F - 60.8 °F 78% 29.95 in 10.0 mi SSW 5.8 mph - N/A   Overcast
5:55 AM 68.0 °F - 60.8 °F 78% 29.95 in 10.0 mi SSW 5.8 mph - N/A   Overcast
6:15 AM 68.0 °F - 60.8 °F 78% 29.95 in 10.0 mi SSW 8.1 mph - N/A   Overcast
6:35 AM 68.0 °F - 60.8 °F 78% 29.95 in 10.0 mi SSW 5.8 mph - N/A   Overcast
6:55 AM 68.0 °F - 60.8 °F 78% 29.95 in 10.0 mi South 3.5 mph - N/A   Overcast
7:15 AM 68.0 °F - 60.8 °F 78% 29.95 in 10.0 mi South 3.5 mph - N/A   Overcast
7:35 AM 68.0 °F - 60.8 °F 78% 29.95 in 10.0 mi South 5.8 mph - N/A   Overcast
7:55 AM 68.0 °F - 60.8 °F 78% 29.95 in 10.0 mi South 6.9 mph - N/A   Overcast
8:15 AM 68.0 °F - 62.6 °F 83% 29.96 in 10.0 mi South 6.9 mph - N/A   Overcast
8:55 AM 69.8 °F - 62.6 °F 78% 29.95 in 10.0 mi South 6.9 mph - N/A   Overcast
9:15 AM 69.8 °F - 62.6 °F 78% 29.95 in 10.0 mi South 8.1 mph - N/A   Overcast
9:35 AM 69.8 °F - 62.6 °F 78% 29.95 in 5.0 mi SSW 8.1 mph - N/A   Haze
9:55 AM 71.6 °F - 64.4 °F 78% 29.94 in 5.0 mi SSW 10.4 mph - N/A   Haze
10:15 AM 71.6 °F - 64.4 °F 78% 29.93 in 7.0 mi SSW 6.9 mph - N/A   Overcast
10:35 AM 71.6 °F - 64.4 °F 78% 29.93 in 10.0 mi SSW 10.4 mph 16.1 mph N/A   Mostly Cloudy
10:55 AM 73.4 °F - 64.4 °F 73% 29.92 in 10.0 mi SW 11.5 mph - N/A   Scattered Clouds
11:15 AM 77.0 °F - 68.0 °F 74% 29.91 in 10.0 mi SW 11.5 mph 16.1 mph N/A   Scattered Clouds
11:35 AM 77.0 °F - 68.0 °F 74% 29.90 in 10.0 mi SSW 9.2 mph - N/A   Scattered Clouds
11:55 AM 77.0 °F - 66.2 °F 69% 29.88 in 10.0 mi SW 11.5 mph - N/A   Scattered Clouds
12:15 PM 77.0 °F - 66.2 °F 69% 29.87 in 10.0 mi SSW 11.5 mph 18.4 mph N/A   Scattered Clouds
12:35 PM 77.0 °F - 64.4 °F 65% 29.85 in 10.0 mi SSW 11.5 mph 20.7 mph N/A   Scattered Clouds
12:55 PM 77.0 °F - 64.4 °F 65% 29.86 in 10.0 mi SSW 15.0 mph 23.0 mph N/A   Scattered Clouds
1:15 PM 78.8 °F - 64.4 °F 61% 29.85 in 10.0 mi SW 11.5 mph 19.6 mph N/A   Scattered Clouds
1:35 PM 80.6 °F 82.7 °F 66.2 °F 61% 29.83 in 10.0 mi SW 13.8 mph - N/A   Clear
1:55 PM 80.6 °F 82.3 °F 64.4 °F 58% 29.83 in 10.0 mi SSW 17.3 mph 21.9 mph N/A   Scattered Clouds
2:15 PM 80.6 °F 82.3 °F 64.4 °F 58% 29.82 in 10.0 mi SSW 12.7 mph 18.4 mph N/A   Scattered Clouds
2:35 PM 80.6 °F 81.8 °F 62.6 °F 54% 29.81 in 10.0 mi SW 13.8 mph 21.9 mph N/A   Scattered Clouds
2:55 PM 82.4 °F 83.4 °F 62.6 °F 51% 29.80 in 10.0 mi SW 10.4 mph - N/A   Scattered Clouds
3:15 PM 82.4 °F 83.4 °F 62.6 °F 51% 29.80 in 10.0 mi SW 13.8 mph 24.2 mph N/A   Clear
3:35 PM 80.6 °F 82.3 °F 64.4 °F 58% 29.80 in 10.0 mi SSW 10.4 mph - N/A   Scattered Clouds
3:55 PM 80.6 °F 83.2 °F 68.0 °F 65% 29.79 in 10.0 mi South 6.9 mph 17.3 mph N/A   Scattered Clouds
4:15 PM 78.8 °F - 66.2 °F 65% 29.78 in 10.0 mi South 8.1 mph - N/A   Clear
4:35 PM 77.0 °F - 66.2 °F 69% 29.78 in 10.0 mi South 10.4 mph 16.1 mph N/A   Clear
4:55 PM 77.0 °F - 68.0 °F 74% 29.79 in 10.0 mi South 9.2 mph - N/A   Clear
5:15 PM 77.0 °F - 69.8 °F 78% 29.80 in 10.0 mi South 6.9 mph 16.1 mph N/A   Clear
5:35 PM 73.4 °F - 66.2 °F 78% 29.80 in 10.0 mi South 5.8 mph - N/A   Clear
5:55 PM 71.6 °F - 64.4 °F 78% 29.80 in 10.0 mi South 8.1 mph - N/A   Clear
6:15 PM 71.6 °F - 64.4 °F 78% 29.81 in 10.0 mi South 6.9 mph - N/A   Clear
6:35 PM 71.6 °F - 64.4 °F 78% 29.81 in 10.0 mi South 6.9 mph - N/A   Clear
7:15 PM 71.6 °F - 64.4 °F 78% 29.82 in 10.0 mi South 10.4 mph - N/A   Clear
7:35 PM 71.6 °F - 64.4 °F 78% 29.81 in 10.0 mi South 8.1 mph - N/A   Clear
7:55 PM 71.6 °F - 64.4 °F 78% 29.82 in 10.0 mi South 9.2 mph - N/A   Clear
8:15 PM 71.6 °F - 64.4 °F 78% 29.82 in 10.0 mi South 9.2 mph 17.3 mph N/A   Clear
8:35 PM 71.6 °F - 64.4 °F 78% 29.83 in 10.0 mi South 9.2 mph - N/A   Clear
8:55 PM 71.6 °F - 64.4 °F 78% 29.82 in 10.0 mi SSW 9.2 mph - N/A   Clear
9:15 PM 71.6 °F - 64.4 °F 78% 29.82 in 10.0 mi SSW 9.2 mph 16.1 mph N/A   Clear
9:35 PM 71.6 °F - 64.4 °F 78% 29.81 in 10.0 mi South 9.2 mph 18.4 mph N/A   Clear
9:55 PM 71.6 °F - 64.4 °F 78% 29.82 in 10.0 mi SSW 10.4 mph 17.3 mph N/A   Clear
10:15 PM 71.6 °F - 64.4 °F 78% 29.82 in 10.0 mi SSW 17.3 mph 23.0 mph N/A   Scattered Clouds
10:35 PM 71.6 °F - 64.4 °F 78% 29.82 in 10.0 mi SSW 15.0 mph 24.2 mph N/A Rain Light Rain
10:55 PM 71.6 °F - 64.4 °F 78% 29.83 in 10.0 mi SSW 18.4 mph 32.2 mph N/A Rain Rain
11:15 PM 71.6 °F - 64.4 °F 78% 29.81 in 7.0 mi SSW 11.5 mph 17.3 mph 0.04 in Rain Heavy Rain
11:55 PM 69.8 °F - 62.6 °F 78% 29.82 in 10.0 mi South 10.4 mph - 0.05 in   Mostly Cloudy